LFPM 162100Z AUTO 09004KT 9999 FEW020 OVC037 05/04 Q1009

Les locaux du Club
   
  L'Entrée du club Batiment 50  
   
  L'accueil et la zone opérations  
   
  La zone opérations  
   
  La zone Briefing  
   
  Le Club House  
   
  La parking avions et le hangard